{"data":{"norad_id":65592,"intl_designator":"2025-207A","name":"STARLINK-35267","alt_names":[],"object_type":"PAYLOAD","status":"ACTIVE","operator":null,"country":"US","launch_date":"2025-09-13","launch_site_code":"AFWTR","launch_vehicle":null,"mission":null,"orbit_class":"UNKNOWN","rcs_meters":null,"size_class":null,"mass_kg":null,"dimensions":null,"purposes":["comms"],"wikipedia_slug":null,"has_3d_model":false,"image_url":null,"decayed_at":null,"tle_current":{"epoch":"2026-05-25T03:47:39.198048Z","epoch_age_seconds":58481,"freshness":"FRESH","line1":"1 65592U 25207A   26145.15809257  .00005085  00000+0  35612-3 0  9995","line2":"2 65592  97.4463 213.6073 0002469 162.6657 197.4655 15.05659221 39755","mean_motion":15.05659221,"eccentricity":0.0002469,"inclination_deg":97.4463,"raan_deg":213.6073,"arg_perigee_deg":162.6657,"mean_anomaly_deg":197.4655,"bstar":0.00035612,"rev_number":3975,"period_min":95.639171195963,"perigee_km":547.77244033432,"apogee_km":551.19329902597,"semimajor_km":6927.6198696801,"source":"CELESTRAK","updated_at":"2026-05-25T13:38:20.851609Z"}}}